(495239) = 2010 TN111 = 2013 JS31

Discovered at Mount Lemmon on 2010-10-09 by Mt. Lemmon Survey.

Orbit

Orbit type: Main Belt

Note: WebGL enabled browser required.

epoch2024-03-31.0
epoch JD2460400.5
perihelion date2021-04-05.76205
perihelion JD2459310.26205
argument of perihelion (°)91.48690
ascending node (°)198.94087
inclination (°)0.99477
eccentricity0.1757940
perihelion distance (AU)1.9854884
Tisserand w.r.t. Jupiter3.5
ΔV w.r.t. Earth (km/sec)8.8
semimajor axis (AU)2.4089709
mean anomaly (°)287.39407
mean daily motion (°/day)0.26360670
aphelion distance (AU)2.832
period (years)3.74
P-vector [x]0.34897733
P-vector [y]-0.86655713
P-vector [z]-0.35678224
Q-vector [x]0.93711422
Q-vector [y]0.32040111
Q-vector [z]0.13841987
absolute magnitude18.32
phase slope0.15
uncertainty0
referenceMPEC 2024-F50
observations used100
oppositions10
arc length (days)6951
first opposition used2005
last opposition used2024
residual rms (arc-secs)0.86
perturbers coarse indicatorM-v
perturbers precise indicator003Ek
first observation date used2005-03-08.0
last observation date used2024-03-19.0
computer nameMPCLINUX
Minimum Orbit Intersection Distances (in AU)
for orbit epoch: 2460400.5, reference: E2024-GB3
Mercury1.53475
Venus1.25907
Earth0.96931
Mars0.55011
Jupiter2.33029
Saturn6.22631
Uranus15.7433
Neptune27.1868

Observations

100 total observations over interval: 2005 03 08.36262 – 2024 03 19.529177
These data are available for download (format description).

Date (UT) J2000 RA J2000 Dec Magn Location Ref
2005 03 08.36262 10 54 59.51 +05 56 24.9 20.5 R G96 – Mt. Lemmon Survey MPS 470821
2005 03 08.36437 10 54 59.44 +05 56 25.8 20.3 R G96 – Mt. Lemmon Survey MPS 470821
2005 03 08.36615 10 54 59.30 +05 56 25.9 21.0 R G96 – Mt. Lemmon Survey MPS 470821
2005 03 08.36792 10 54 59.21 +05 56 26.6 20.5 R G96 – Mt. Lemmon Survey MPS 470821
2006 09 25.24207 22 23 19.93 -09 03 04.5 21.0 V G96 – Mt. Lemmon Survey MPS 470821
2006 09 25.24875 22 23 19.71 -09 03 05.9 20.7 V G96 – Mt. Lemmon Survey MPS 470821
2006 09 25.25550 22 23 19.50 -09 03 07.2 20.8 V G96 – Mt. Lemmon Survey MPS 470821
2006 09 25.26228 22 23 19.28 -09 03 08.6 21.9 V G96 – Mt. Lemmon Survey MPS 470821
2009 04 28.20300 12 30 48.78 -03 16 54.4 22.3 V G96 – Mt. Lemmon Survey MPS 470821
2009 04 28.20847 12 30 48.56 -03 16 51.7 21.8 V G96 – Mt. Lemmon Survey MPS 470821
2009 04 28.21380 12 30 48.31 -03 16 50.4 21.6 V G96 – Mt. Lemmon Survey MPS 470821
2009 04 28.21913 12 30 48.16 -03 16 48.5 21.3 V G96 – Mt. Lemmon Survey MPS 470821
2010 10 09.35611 01 27 41.43 +09 09 21.8 20.4 V G96 – Mt. Lemmon Survey MPS 351692
2010 10 09.36299 01 27 41.00 +09 09 19.0 20.6 V G96 – Mt. Lemmon Survey MPS 351692
2010 10 09.36988 01 27 40.60 +09 09 16.5 21.3 V G96 – Mt. Lemmon Survey MPS 351692
2010 10 09.37683 01 27 40.21 +09 09 14.2 20.5 V G96 – Mt. Lemmon Survey MPS 351692
2010 10 13.39865 01 23 49.51 +08 44 23.2 20.8 V 691 – Steward Observatory, Kitt Peak-Spacewatch MPS 351692
2010 10 13.41636 01 23 48.45 +08 44 16.5 21.1 V 691 – Steward Observatory, Kitt Peak-Spacewatch MPS 351692
2010 10 13.43409 01 23 47.39 +08 44 10.0 21.5 V 691 – Steward Observatory, Kitt Peak-Spacewatch MPS 351692
2010 11 05.20828 01 04 36.55 +06 37 02.5 21.7 V G96 – Mt. Lemmon Survey MPS 470821
2010 11 05.21524 01 04 36.30 +06 37 00.4 21.8 V G96 – Mt. Lemmon Survey MPS 470821
2010 11 05.22219 01 04 36.01 +06 36 58.8 21.7 V G96 – Mt. Lemmon Survey MPS 470821
2010 11 05.22919 01 04 35.72 +06 36 56.9 22.1 V G96 – Mt. Lemmon Survey MPS 470821
2012 01 20.29756 08 08 06.39 +18 39 15.6 22.1 V G96 – Mt. Lemmon Survey MPS 470821
2012 01 20.30565 08 08 05.85 +18 39 17.3 21.8 V G96 – Mt. Lemmon Survey MPS 470821
2012 01 20.31377 08 08 05.31 +18 39 19.0 22.0 V G96 – Mt. Lemmon Survey MPS 470821
2012 01 20.32196 08 08 04.84 +18 39 20.4 22.2 V G96 – Mt. Lemmon Survey MPS 470821
2013 05 08.43738 15 40 03.445 -18 29 47.06 20.6 w F51 – Pan-STARRS 1, Haleakala MPS 470146
2013 05 08.45147 15 40 02.639 -18 29 43.91 20.8 w F51 – Pan-STARRS 1, Haleakala MPS 470146
2013 05 08.46556 15 40 01.831 -18 29 40.81 20.7 w F51 – Pan-STARRS 1, Haleakala MPS 470146
2013 05 08.47969 15 40 01.026 -18 29 37.54 20.6 w F51 – Pan-STARRS 1, Haleakala MPS 470146
2013 05 12.28119 15 36 30.49 -18 15 10.2 20.8 V 691 – Steward Observatory, Kitt Peak-Spacewatch MPS 467609
2013 05 12.30239 15 36 29.20 -18 15 05.4 20.6 V 691 – Steward Observatory, Kitt Peak-Spacewatch MPS 467609
2013 05 12.32029 15 36 28.15 -18 15 01.4 20.6 V 691 – Steward Observatory, Kitt Peak-Spacewatch MPS 467609
2013 05 16.31471 15 32 38.79 -17 59 14.8 20.1 V G96 – Mt. Lemmon Survey MPS 467609
2013 05 16.32174 15 32 38.32 -17 59 13.4 20.1 V G96 – Mt. Lemmon Survey MPS 467609
2013 05 16.32868 15 32 37.93 -17 59 11.5 20.2 V G96 – Mt. Lemmon Survey MPS 467609
2013 05 16.33561 15 32 37.50 -17 59 09.9 20.4 V G96 – Mt. Lemmon Survey MPS 467609
2013 06 01.21405 15 18 01.51 -16 57 58.1 20.3 V G96 – Mt. Lemmon Survey MPS 470146
2013 06 01.21577 15 18 01.44 -16 57 58.2 20.7 V G96 – Mt. Lemmon Survey MPS 469255
2013 06 01.21966 15 18 01.22 -16 57 57.1 20.7 V G96 – Mt. Lemmon Survey MPS 470146
2013 06 01.22135 15 18 01.11 -16 57 56.8 20.6 V G96 – Mt. Lemmon Survey MPS 469255
2013 06 01.22499 15 18 00.93 -16 57 56.3 20.5 V G96 – Mt. Lemmon Survey MPS 470146
2013 06 01.22670 15 18 00.82 -16 57 55.4 18.6 V G96 – Mt. Lemmon Survey MPS 469255
2013 06 01.23031 15 18 00.64 -16 57 55.1 21.1 V G96 – Mt. Lemmon Survey MPS 470146
2013 06 01.23204 15 18 00.57 -16 57 54.6 20.3 V G96 – Mt. Lemmon Survey MPS 469255
2013 06 04.38903 15 15 32.464 -16 47 24.66 20.7 w F51 – Pan-STARRS 1, Haleakala MPS 469255
2013 06 04.40374 15 15 31.761 -16 47 21.87 20.8 w F51 – Pan-STARRS 1, Haleakala MPS 469255
2013 06 04.41838 15 15 31.070 -16 47 18.86 20.8 w F51 – Pan-STARRS 1, Haleakala MPS 469255
2017 05 21.56197 19 51 05.378 -19 26 43.28 21.5 w F51 – Pan-STARRS 1, Haleakala MPS 798015
2017 05 21.57363 19 51 05.720 -19 26 41.73 21.5 w F51 – Pan-STARRS 1, Haleakala MPS 798015
2017 05 21.58526 19 51 06.044 -19 26 40.00 21.5 w F51 – Pan-STARRS 1, Haleakala MPS 798015
2017 06 21.51563 19 50 47.682 -19 03 12.14 20.4 w F51 – Pan-STARRS 1, Haleakala MPS 802439
2017 06 21.52643 19 50 47.304 -19 03 12.61 20.4 w F51 – Pan-STARRS 1, Haleakala MPS 802439
2017 06 21.53720 19 50 46.919 -19 03 13.22 20.5 w F51 – Pan-STARRS 1, Haleakala MPS 802439
2017 06 21.54799 19 50 46.529 -19 03 13.52 20.6 w F51 – Pan-STARRS 1, Haleakala MPS 802439
2017 07 25.41621 19 23 14.957 -20 03 15.39 20.3 w F51 – Pan-STARRS 1, Haleakala MPS 807892
2017 07 25.42815 19 23 14.331 -20 03 16.75 20.2 w F51 – Pan-STARRS 1, Haleakala MPS 807892
2017 07 25.45197 19 23 13.073 -20 03 19.66 20.3 w F51 – Pan-STARRS 1, Haleakala MPS 807892
2020 03 23.45264 11 03 04.033 +05 17 31.67 21.8 w F51 – Pan-STARRS 1, Haleakala MPS 1172078
2020 03 23.46445 11 03 03.412 +05 17 35.74 21.7 w F51 – Pan-STARRS 1, Haleakala MPS 1172078
2020 03 23.48806 11 03 02.146 +05 17 44.03 21.8 w F51 – Pan-STARRS 1, Haleakala MPS 1172078
2021 08 12.499448 23 34 04.926 -01 31 39.25 21.23 w F51 – Pan-STARRS 1, Haleakala MPS 1459351
2021 08 12.511958 23 34 04.556 -01 31 41.43 21.08 w F51 – Pan-STARRS 1, Haleakala MPS 1459351
2021 08 12.524458 23 34 04.191 -01 31 43.94 21.25 w F51 – Pan-STARRS 1, Haleakala MPS 1459351
2021 08 16.75019 23 31 57.02 -01 46 20.1 20.6 R D29 – Purple Mountain Observatory, XuYi Station MPS 1459351
2021 08 16.76433 23 31 56.56 -01 46 23.1 20.1 R D29 – Purple Mountain Observatory, XuYi Station MPS 1459351
2021 08 16.77848 23 31 56.02 -01 46 25.9 20.8 R D29 – Purple Mountain Observatory, XuYi Station MPS 1459351
2021 08 20.562999 23 29 38.385 -02 02 15.31 20.93 w F51 – Pan-STARRS 1, Haleakala MPS 1459351
2021 08 20.568830 23 29 38.123 -02 02 16.68 21.13 w F51 – Pan-STARRS 1, Haleakala MPS 1459351
2021 08 20.574670 23 29 37.894 -02 02 18.36 20.90 w F51 – Pan-STARRS 1, Haleakala MPS 1459351
2021 08 20.580209 23 29 37.666 -02 02 19.91 20.85 w F51 – Pan-STARRS 1, Haleakala MPS 1459351
2021 09 09.392477 23 13 38.158 -03 54 10.36 20.40 w F52 – Pan-STARRS 2, Haleakala MPS 1470316
2021 09 09.404029 23 13 37.516 -03 54 14.62 20.23 w F52 – Pan-STARRS 2, Haleakala MPS 1470316
2021 09 09.415603 23 13 36.867 -03 54 18.99 20.25 w F52 – Pan-STARRS 2, Haleakala MPS 1470316
2021 09 09.427208 23 13 36.216 -03 54 23.33 20.26 w F52 – Pan-STARRS 2, Haleakala MPS 1470316
2021 09 10.257695 23 12 52.46 -03 59 35.2 20.22 G G96 – Mt. Lemmon Survey MPS 1470316
2021 09 10.264703 23 12 52.10 -03 59 38.0 19.94 G G96 – Mt. Lemmon Survey MPS 1470316
2021 09 10.270331 23 12 51.76 -03 59 39.9 20.46 G G96 – Mt. Lemmon Survey MPS 1470316
2021 09 10.277326 23 12 51.39 -03 59 42.6 20.36 G G96 – Mt. Lemmon Survey MPS 1470316
2021 09 10.62450 23 12 33.11 -04 01 52.0 20.5 R D29 – Purple Mountain Observatory, XuYi Station MPS 1470316
2021 09 10.63864 23 12 32.35 -04 01 56.8 20.1 R D29 – Purple Mountain Observatory, XuYi Station MPS 1470316
2021 09 10.65278 23 12 31.54 -04 02 02.4 20.2 R D29 – Purple Mountain Observatory, XuYi Station MPS 1470316
2021 09 11.192902 23 12 03.41 -04 05 23.7 20.38 G G96 – Mt. Lemmon Survey MPS 1470316
2021 09 11.198160 23 12 03.13 -04 05 26.1 20.44 G G96 – Mt. Lemmon Survey MPS 1470316
2021 09 11.203426 23 12 02.84 -04 05 28.4 20.52 G G96 – Mt. Lemmon Survey MPS 1470316
2021 09 11.208675 23 12 02.54 -04 05 29.9 20.29 G G96 – Mt. Lemmon Survey MPS 1470316
2021 09 13.600917 23 09 57.874 -04 20 09.06 19.9 G P07 – Space Surveillance Telescope, HEH Station MPS 2144816
2021 09 13.660837 23 09 54.566 -04 20 31.63 20.9 G P07 – Space Surveillance Telescope, HEH Station MPS 2144816
2021 09 13.710286 23 09 51.838 -04 20 50.32 20.6 G P07 – Space Surveillance Telescope, HEH Station MPS 2144816
2021 09 13.766284 23 09 48.838 -04 21 09.58 20.0 G P07 – Space Surveillance Telescope, HEH Station MPS 2144816
2021 09 25.381600 23 00 42.607 -05 27 09.52 20.71 i F51 – Pan-STARRS 1, Haleakala MPS 1487398
2021 09 25.392941 23 00 42.113 -05 27 12.79 20.53 i F51 – Pan-STARRS 1, Haleakala MPS 1487398
2021 09 25.415620 23 00 41.108 -05 27 20.00 20.74 i F51 – Pan-STARRS 1, Haleakala MPS 1487398
2021 10 26.236814 22 52 21.028 -06 42 55.71 22.15 w F51 – Pan-STARRS 1, Haleakala MPS 1494124
2021 10 26.248104 22 52 21.136 -06 42 55.59 21.70 w F51 – Pan-STARRS 1, Haleakala MPS 1494124
2021 10 26.259388 22 52 21.226 -06 42 55.37 21.79 w F51 – Pan-STARRS 1, Haleakala MPS 1494124
2024 03 19.505547 13 33 21.325 -09 52 51.02 21.54 w F51 – Pan-STARRS 1, Haleakala MPS 2156016
2024 03 19.517358 13 33 20.871 -09 52 47.55 21.56 w F51 – Pan-STARRS 1, Haleakala MPS 2156016
2024 03 19.529177 13 33 20.421 -09 52 44.73 21.57 w F51 – Pan-STARRS 1, Haleakala MPS 2156016